When you browse on this site, cookies collect data to enhance your experience and personalize the content and advertising you see.
Visit our Privacy Policy to learn more. By continuing to use the site, you agree to this use of cookies and data.
  • In Hungary
  • List of Countries
  • For 7 days
  • Water Temperature
  • Satellite Maps
  • Weather Map
  • News
  • Weather Widgets
  • user-avatar
    Login

    Hourly Weather Vitrove

    Today, 24 July, Wednesday

    Time Temperature Precipitation Wind Pressure Humidity
    00:00 +21°C° 0 mm 3 mps 755 mmHg 68%
    01:00 +20°C° 0 mm 3 mps 755 mmHg 70%
    02:00 +19°C° 0 mm 3 mps 755 mmHg 73%
    03:00 +19°C° 0 mm 3 mps 755 mmHg 74%
    04:00 +18°C° 0 mm 3 mps 755 mmHg 75%
    05:00 +18°C° 0 mm 3 mps 755 mmHg 77%
    06:00 +20°C° 0 mm 4 mps 755 mmHg 70%
    07:00 +22°C° 0 mm 4 mps 755 mmHg 63%
    08:00 +23°C° 0 mm 4 mps 755 mmHg 57%
    09:00 +26°C° 0 mm 4 mps 755 mmHg 50%
    10:00 +27°C° 0 mm 4 mps 755 mmHg 44%
    11:00 +28°C° 0 mm 4 mps 755 mmHg 38%
    12:00 +28°C° 0 mm 4 mps 755 mmHg 39%
    13:00 +28°C° 0 mm 5 mps 754 mmHg 40%
    14:00 +29°C° 0 mm 5 mps 754 mmHg 41%
    15:00 +29°C° 0 mm 5 mps 754 mmHg 41%
    16:00 +29°C° 0 mm 5 mps 754 mmHg 42%
    17:00 +29°C° 0 mm 5 mps 754 mmHg 42%
    18:00 +27°C° 0 mm 4 mps 754 mmHg 49%
    19:00 +25°C° 0 mm 4 mps 754 mmHg 56%
    20:00 +24°C° 0 mm 3 mps 754 mmHg 62%
    21:00 +22°C° 0 mm 3 mps 755 mmHg 68%
    22:00 +21°C° 0 mm 3 mps 755 mmHg 73%
    23:00 +20°C° 0 mm 3 mps 755 mmHg 79%

    Tomorrow, 25 July, Thursday

    Time Temperature Precipitation Wind Pressure Humidity
    00:00 +19°C° 0 mm 3 mps 755 mmHg 82%
    01:00 +19°C° 0 mm 3 mps 755 mmHg 86%
    02:00 +18°C° 0 mm 3 mps 755 mmHg 89%
    03:00 +18°C° 0 mm 3 mps 755 mmHg 90%
    04:00 +18°C° 0 mm 3 mps 755 mmHg 91%
    05:00 +17°C° 0 mm 3 mps 756 mmHg 93%
    06:00 +19°C° 0 mm 4 mps 756 mmHg 83%
    07:00 +21°C° 0 mm 4 mps 756 mmHg 73%
    08:00 +23°C° 0 mm 5 mps 756 mmHg 64%
    09:00 +26°C° 0 mm 5 mps 756 mmHg 56%
    10:00 +27°C° 0 mm 6 mps 756 mmHg 49%
    11:00 +29°C° 0 mm 6 mps 756 mmHg 41%
    12:00 +29°C° 0 mm 6 mps 756 mmHg 39%
    13:00 +30°C° 0 mm 6 mps 755 mmHg 36%
    14:00 +30°C° 0 mm 6 mps 755 mmHg 33%
    15:00 +30°C° 0 mm 6 mps 755 mmHg 35%
    16:00 +29°C° 0 mm 6 mps 755 mmHg 36%
    17:00 +29°C° 0 mm 6 mps 755 mmHg 37%
    18:00 +28°C° 0 mm 5 mps 755 mmHg 43%
    19:00 +26°C° 0 mm 5 mps 756 mmHg 48%
    20:00 +25°C° 0 mm 4 mps 756 mmHg 53%
    21:00 +23°C° 0 mm 4 mps 756 mmHg 58%
    22:00 +21°C° 0 mm 3 mps 756 mmHg 63%
    23:00 +20°C° 0 mm 3 mps 756 mmHg 68%

    Day after tomorrow, 26 July, Friday

    Time Temperature Precipitation Wind Pressure Humidity
    00:00 +20°C° 0 mm 3 mps 756 mmHg 70%
    01:00 +19°C° 0 mm 3 mps 756 mmHg 73%
    02:00 +19°C° 0 mm 3 mps 756 mmHg 75%
    03:00 +19°C° 0 mm 2 mps 756 mmHg 75%
    04:00 +18°C° 0 mm 2 mps 756 mmHg 75%
    05:00 +18°C° 0 mm 2 mps 756 mmHg 75%
    06:00 +20°C° 0 mm 2 mps 756 mmHg 66%
    07:00 +24°C° 0 mm 2 mps 756 mmHg 57%
    08:00 +26°C° 0 mm 2 mps 756 mmHg 48%
    09:00 +27°C° 0 mm 3 mps 756 mmHg 43%
    10:00 +29°C° 0 mm 3 mps 756 mmHg 38%
    11:00 +30°C° 0 mm 3 mps 755 mmHg 33%
    12:00 +30°C° 0 mm 3 mps 755 mmHg 32%
    13:00 +31°C° 0 mm 3 mps 755 mmHg 31%
    14:00 +31°C° 0 mm 3 mps 754 mmHg 31%
    15:00 +31°C° 0 mm 3 mps 754 mmHg 32%
    16:00 +31°C° 0 mm 3 mps 754 mmHg 33%
    17:00 +31°C° 0 mm 3 mps 753 mmHg 34%
    18:00 +29°C° 0.1 mm 3 mps 754 mmHg 40%
    19:00 +28°C° 0.1 mm 3 mps 754 mmHg 45%
    20:00 +26°C° 0.1 mm 3 mps 754 mmHg 51%
    21:00 +25°C° 0.3 mm 3 mps 754 mmHg 58%
    22:00 +22°C° 0.3 mm 3 mps 753 mmHg 66%
    23:00 +21°C° 0.3 mm 3 mps 753 mmHg 73%

    27 July, Saturday

    Time Temperature Precipitation Wind Pressure Humidity
    00:00 +21°C° 0.2 mm 2 mps 753 mmHg 76%
    01:00 +20°C° 0.2 mm 2 mps 753 mmHg 79%
    02:00 +21°C° 0.2 mm 1 mps 753 mmHg 82%
    03:00 +21°C° 0.1 mm 1 mps 752 mmHg 82%
    04:00 +21°C° 0.1 mm 1 mps 752 mmHg 83%
    05:00 +21°C° 0.1 mm 1 mps 752 mmHg 83%
    06:00 +23°C° 0.3 mm 2 mps 752 mmHg 76%
    07:00 +25°C° 0.3 mm 2 mps 752 mmHg 68%
    08:00 +27°C° 0.3 mm 3 mps 752 mmHg 61%
    09:00 +26°C° 1.5 mm 3 mps 752 mmHg 66%
    10:00 +25°C° 1.5 mm 3 mps 752 mmHg 71%
    11:00 +24°C° 1.5 mm 3 mps 752 mmHg 76%
    12:00 +26°C° 1.3 mm 3 mps 751 mmHg 68%
    13:00 +28°C° 1.3 mm 4 mps 751 mmHg 60%
    14:00 +30°C° 1.3 mm 4 mps 751 mmHg 52%
    15:00 +29°C° 1.8 mm 4 mps 751 mmHg 54%
    16:00 +29°C° 1.8 mm 4 mps 750 mmHg 56%
    17:00 +29°C° 1.8 mm 4 mps 750 mmHg 58%
    18:00 +27°C° 3.7 mm 3 mps 750 mmHg 67%
    19:00 +25°C° 3.7 mm 3 mps 750 mmHg 75%
    20:00 +23°C° 3.7 mm 2 mps 750 mmHg 84%
    21:00 +23°C° 0.1 mm 2 mps 750 mmHg 83%
    22:00 +23°C° 0.1 mm 2 mps 750 mmHg 83%
    23:00 +23°C° 0.1 mm 2 mps 750 mmHg 83%

    28 July, Sunday

    Time Temperature Precipitation Wind Pressure Humidity
    00:00 +23°C° 0 mm 2 mps 750 mmHg 83%
    01:00 +21°C° 0 mm 2 mps 750 mmHg 83%
    02:00 +22°C° 0 mm 1 mps 750 mmHg 84%
    03:00 +22°C° 0.1 mm 1 mps 750 mmHg 84%
    04:00 +22°C° 0.1 mm 1 mps 750 mmHg 84%
    05:00 +22°C° 0.1 mm 1 mps 750 mmHg 84%
    06:00 +23°C° 0 mm 1 mps 750 mmHg 77%
    07:00 +25°C° 0 mm 1 mps 750 mmHg 71%
    08:00 +26°C° 0 mm 1 mps 750 mmHg 64%
    09:00 +27°C° 0 mm 1 mps 750 mmHg 58%
    10:00 +28°C° 0 mm 2 mps 750 mmHg 52%
    11:00 +30°C° 0 mm 2 mps 750 mmHg 45%
    12:00 +30°C° 0 mm 2 mps 749 mmHg 42%
    13:00 +31°C° 0 mm 2 mps 749 mmHg 39%
    14:00 +33°C° 0 mm 3 mps 749 mmHg 35%
    15:00 +33°C° 0 mm 3 mps 749 mmHg 36%
    16:00 +31°C° 0 mm 3 mps 749 mmHg 36%
    17:00 +31°C° 0 mm 3 mps 748 mmHg 36%
    18:00 +30°C° 0 mm 3 mps 748 mmHg 41%
    19:00 +28°C° 0 mm 2 mps 749 mmHg 46%
    20:00 +26°C° 0 mm 1 mps 749 mmHg 51%
    21:00 +25°C° 0 mm 1 mps 749 mmHg 55%
    22:00 +25°C° 0 mm 1 mps 749 mmHg 59%
    23:00 +24°C° 0 mm 1 mps 749 mmHg 63%

    29 July, Monday

    Time Temperature Precipitation Wind Pressure Humidity
    00:00 +24°C° 0 mm 1 mps 749 mmHg 65%
    01:00 +23°C° 0 mm 1 mps 748 mmHg 66%
    02:00 +23°C° 0 mm 2 mps 748 mmHg 67%
    03:00 +23°C° 0 mm 2 mps 748 mmHg 70%
    04:00 +21°C° 0 mm 2 mps 748 mmHg 72%
    05:00 +21°C° 0 mm 2 mps 748 mmHg 74%
    06:00 +23°C° 0 mm 2 mps 749 mmHg 71%
    07:00 +25°C° 0 mm 3 mps 749 mmHg 67%
    08:00 +26°C° 0 mm 3 mps 749 mmHg 64%
    09:00 +26°C° 0.6 mm 4 mps 749 mmHg 65%
    10:00 +26°C° 0.6 mm 5 mps 749 mmHg 67%
    11:00 +24°C° 0.6 mm 7 mps 749 mmHg 68%
    12:00 +24°C° 0.1 mm 7 mps 750 mmHg 66%
    13:00 +24°C° 0.1 mm 7 mps 750 mmHg 63%
    14:00 +24°C° 0.1 mm 7 mps 750 mmHg 61%
    15:00 +24°C° 0 mm 6 mps 750 mmHg 59%
    16:00 +24°C° 0 mm 6 mps 750 mmHg 57%
    17:00 +23°C° 0 mm 6 mps 751 mmHg 55%
    18:00 +22°C° 0 mm 5 mps 751 mmHg 57%
    19:00 +21°C° 0 mm 5 mps 752 mmHg 60%
    20:00 +19°C° 0 mm 4 mps 752 mmHg 63%
    21:00 +18°C° 0 mm 4 mps 753 mmHg 64%
    22:00 +17°C° 0 mm 4 mps 753 mmHg 65%
    23:00 +15°C° 0 mm 4 mps 754 mmHg 66%
    Show more